Location: *
(47.8307°S, 178.3954°E)
Time: 06:16:57
(UTC+00:00)

In-Cosmos 22 Rocket - Pass Details

Date: 12 August 2024
Orbit: 790 x 886 km, 81.2° (Epoch: 18 September)

Event Time Altitude Azimuth Distance (km) Brightness Sun altitude
Rises 17:40:33 0° 351° (N) 3,428 7.3 -15.9°
Reaches altitude 10° 17:42:56 10° 351° (N) 2,512 6.6 -15.5°
Maximum altitude 17:48:42 89° 86° (E) 895 4.3 -14.6°
Drops below altitude 10° 17:54:37 10° 168° (SSE) 2,585 6.8 -13.6°
Sets 17:57:07 0° 168° (SSE) 3,534 7.5 -13.2°
